Location: Brunembert
(50.7122°N, 1.8935°E)
Time: 10:11:41
(UTC+00:00)

Cosmos 1805 Rocket - Pass Details

Date: 22 April 2021
Orbit: 605 x 631 km, 82.5° (Epoch: 05 May)

Event Time Altitude Azimuth Distance (km) Brightness Sun altitude
Rises 21:35:06 0° 355° (N) 2,883 8.0 -20.2°
Reaches altitude 10° 21:37:27 10° 3° (N) 1,971 6.9 -20.4°
Maximum altitude 21:41:34 40° 73° (ENE) 907 4.2 -20.8°
Enters shadow 21:41:58 39° 87° (E) 922 4.2 -20.8°
